User: anonymous   Login
Location: Unspecified
(0.0000°N, 0.0000°E)
Time: 01:04:45
(UTC+00:00)
Language:

STARLINK-31631 - Orbit

View from above orbital plane
View from above orbital plane
View from above satellite
View from above satellite

Ground track
Ground track

The orbit is defined by the following mean orbital elements,

1 59459U          26145.50279507 +.00000000 +00000-0 -26135-5 0 00001
2 59459  43.0006 316.9726 0001070 275.7432  84.3298 15.27571520    08
Epoch (UTC): 25 May 2026 12:04:01
Eccentricity: 0.0001070
inclination: 43.0006°
perigee height: 482 km
apogee height: 484 km
right ascension of ascending node: 316.9726°
argument of perigee: 275.7432°
revolutions per day: 15.27571520
mean anomaly at epoch: 84.3298°

The dashed part of the orbit path shows where the satellite is in the earth's shadow,  

DLR